331P/Gibbs (2020)

Japanese version
Home page
Updated on February 20, 2021

---------------------------------------------------------------------

* Profile

* Orbital Elements

Epoch 2020 Sept. 28.0 TT = JDT 2459120.5
T 2020 Sept. 29.61423 TT                                Rudenko
q   2.8812097            (2000.0)            P               Q
n   0.18935503     Peri.  183.74312     +0.76072213     -0.64112616
a   3.0034345      Node   216.77869     +0.59982399     +0.75401173
e   0.0406950      Incl.    9.73964     +0.24801818     +0.14291101
P   5.21
From 185 observations 2004 Aug. 26-2020 Nov. 21, mean residual 1".2.

* Magnitudes Graph

        m1 = 15.0 + 5 log d + 10.0 log r

---------------------------------------------------------------------

The orbital elements are published on M.P.E.C. 2021-B143.
The magnitudes graphs are made with Comet for Windows.

---------------------------------------------------------------------

Copyright(C) Seiichi Yoshida (comet@aerith.net). All rights reserved.